Weather History for KDVT - January, 2013

Change the Weather History Date:

Thursday, January 3, 2013

  Actual Average (KPHX) Record (KPHX)
Temperature  
Mean Temperature 50 °F 55 °F  
Max Temperature 60 °F 66 °F 79 °F (1956)
Min Temperature 41 °F 45 °F 25 °F (1950)
Degree Days  
Heating Degree Days 14 10  
Month to date heating degree days 30  
Since 1 July heating degree days 431  
Cooling Degree Days 0 0  
Month to date cooling degree days 0  
Year to date cooling degree days 0  
Moisture  
Dew Point 11 °F    
Average Humidity 23    
Maximum Humidity 37    
Minimum Humidity 14    
Precipitation  
Precipitation 0.00 in 0.03 in 0.82 in (2005)
Month to date precipitation 0.09  
Year to date precipitation 0.09  
Snow  
Snow 0.00 in - - ()
Month to date snowfall  
Year to date snowfall  
Since 1 July snowfall  
Snow Depth -    
Sea Level Pressure  
Sea Level Pressure 30.09 in    
Wind  
Wind Speed 8 mph (NE)    
Max Wind Speed 15 mph    
Max Gust Speed 22 mph    
Visibility 10 miles    
Events      
T = Trace of Precipitation, MM = Missing Value Source: NWS Daily Summary

Daily Weather History Graph

Daily Weather History Graph

Search for Another Location

Airport or City:

Trip Planner

Search our weather history database for the weather conditions in past years. The results will help you decide how hot, cold, wet, or windy it might be!

Date:

Astronomy

Jan. 03, 2013 Rise Set
Actual Time 7:33 AM MST 5:32 PM MST
Civil Twilight 7:05 AM MST 6:00 PM MST
Nautical Twilight 6:34 AM MST 6:31 PM MST
Astronomical Twilight 6:04 AM MST 7:01 PM MST
Moon 11:51 PM MST (1/3) 11:05 AM MST (1/3)
Length of Visible Light 10h 54m
Length of Day
9h 59m
Waning Gibbous, 65% of the Moon is Illuminated
Jan 3
Waning Gibbous
Jan 4
Last Quarter
Jan 11
New
Jan 18
First Quarter
Jan 26
Full

Hourly Weather History & Observations

Time (MST) Temp. Windchill Dew Point Humidity Pressure Visibility Wind Dir Wind Speed Gust Speed Precip Events Conditions
12:53 AM 42.1 °F 39.2 °F 17.1 °F 37% 30.02 in 10.0 mi NNE 4.6 mph - N/A   Clear
1:53 AM 44.1 °F 39.5 °F 14.0 °F 30% 30.02 in 10.0 mi NE 8.1 mph - N/A   Clear
2:53 AM 44.1 °F 39.5 °F 12.9 °F 28% 30.04 in 10.0 mi NNE 8.1 mph - N/A   Clear
3:53 AM 43.0 °F 41.3 °F 12.0 °F 28% 30.04 in 10.0 mi NE 3.5 mph - N/A   Clear
4:53 AM 43.0 °F 38.8 °F 12.9 °F 30% 30.03 in 10.0 mi NNE 6.9 mph - N/A   Clear
5:53 AM 43.0 °F 38.2 °F 12.0 °F 28% 30.04 in 10.0 mi NNE 8.1 mph - N/A   Clear
6:53 AM 43.0 °F 39.5 °F 12.0 °F 28% 30.07 in 10.0 mi NNE 5.8 mph - N/A   Clear
7:53 AM 41.0 °F 39.0 °F 12.9 °F 32% 30.09 in 10.0 mi North 3.5 mph - N/A   Clear
8:53 AM 48.0 °F - 14.0 °F 26% 30.11 in 10.0 mi NE 8.1 mph - N/A   Clear
9:53 AM 53.1 °F - 12.0 °F 20% 30.12 in 10.0 mi NNE 11.5 mph - N/A   Clear
10:53 AM 55.0 °F - 9.0 °F 16% 30.13 in 10.0 mi NNE 10.4 mph - N/A   Clear
11:53 AM 57.0 °F - 7.0 °F 14% 30.10 in 10.0 mi ENE 11.5 mph 21.9 mph N/A   Clear
12:53 PM 59.0 °F - 9.0 °F 14% 30.08 in 10.0 mi East 12.7 mph 20.7 mph N/A   Clear
1:53 PM 59.0 °F - 10.0 °F 14% 30.06 in 10.0 mi ENE 12.7 mph 18.4 mph N/A   Clear
2:53 PM 60.1 °F - 10.9 °F 14% 30.06 in 10.0 mi ENE 15.0 mph 19.6 mph N/A   Clear
3:53 PM 60.1 °F - 10.9 °F 14% 30.07 in 10.0 mi NE 11.5 mph - N/A   Clear
4:53 PM 60.1 °F - 10.9 °F 14% 30.08 in 10.0 mi NE 8.1 mph - N/A   Clear
5:53 PM 55.9 °F - 10.0 °F 16% 30.09 in 10.0 mi NNE 9.2 mph - N/A   Clear
6:53 PM 53.1 °F - 10.0 °F 18% 30.11 in 10.0 mi NNE 10.4 mph - N/A   Clear
7:53 PM 50.0 °F - 10.0 °F 20% 30.14 in 10.0 mi NNE 9.2 mph - N/A   Clear
8:53 PM 48.0 °F - 10.0 °F 22% 30.16 in 10.0 mi North 8.1 mph - N/A   Clear
9:53 PM 46.0 °F 41.0 °F 10.0 °F 23% 30.17 in 10.0 mi NE 10.4 mph - N/A   Clear
10:53 PM 44.1 °F 40.1 °F 10.9 °F 26% 30.19 in 10.0 mi NNE 6.9 mph - N/A   Clear
11:53 PM 42.1 °F - 12.0 °F 29% 30.20 in 10.0 mi Calm Calm - N/A   Clear